SCP
0 0 0 0 0 0 0 0 0 0 0 0 0 0 0 0 0 0 0 0 0 0 0 0 0 0 0 0 0 0 0 0 0 0 0 0 0 0 0 0 0 0 0 0
0 0 0 0 0 0 0 0 0 0 0 0 0 0 0 0 0 0 0 0 0 0 0 0 0 0 0 0 0 0 0 0 0 0 0 0 0 0 0 0 0 0 0 0
0 0 0 0 0 0 0 0 0 0 0 0 0 0 0 0 0 0 0 0 0 0 0 0 0 0 0 0 0 0 0 0 0 0 0 0 0 0 0 0 0 0 0 0
0 0 0 0 0 0 0 0 0 0 0 0 0 0 0 0 0 0 0 0 0 0 0 0 0 0 0 0 0 0 0 0 0 0 0 0 0 0 0 0 0 0 0 0
0 0 0 0 0 0 0 0 0 0 0 0 0 0 0 0 0 0 0 0 0 0 0 0 0 0 0 0 0 0 0 0 0 0 0 0 0 0 0 0 0 0 0 0
0 0 0 0 0 0 0 0 0 0 0 0 0 0 0 0 0 0 0 0 0 0 0 0 0 0 0 0 0 0 0 0 0 0 0 0 0 0 0 0 0 0 0 0
0 0 0 0 0 0 0 0 0 0 0 0 0 0 0 0 0 0 0 0 0 0 0 0 0 0 0 0 0 0 0 0 0 0 0 0 0 0 0 0 0 0 0 0
0 0 0 0 0 0 0 0 0 0 0 0 0 0 0 0 0 0 0 0 0 0 0 0 0 0 0 0 0 0 0 0 0 0 0 0 0 0 0 0 0 0 0 0
0 0 0 0 0 0 0 0 0 0 0 0 0 0 0 0 0 0 0 0 0 0 0 0 0 0 0 0 0 0 0 0 0 0 0 0 0 0 0 0 0 0 0 0
0 0 0 0 0 0 0 0 0 0 0 0 0 0 0 0 0 0 0 0 0 0 0 0 0 0 0 0 0 0 0 0 0 0 0 0 0 0 0 0 0 0 0 0
0 0 0 0 0 0 0 0 0 0 0 0 0 0 0 0 0 0 0 0 0 0 0 0 0 0 0 0 0 0 0 0 0 0 0 0 0 0 0 0 0 0 0 0
0 0 0 0 0 0 0 0 0 0 0 0 0 0 0 0 0 0 0 0 0 0 0 0 0 0 0 0 0 0 0 0 0 0 0 0 0 0 0 0 0 0 0 0
0 0 0 0 0 0 0 0 0 0 0 0 0 0 0 0 0 0 0 0 0 0 0 0 0 0 0 0 0 0 0 0 0 0 0 0 0 0 0 0 0 0 0 0
0 0 0 0 0 0 0 0 0 0 0 0 0 0 0 0 0 0 0 0 0 0 0 0 0 0 0 0 0 0 0 0 0 0 0 0 0 0 0 0 0 0 0 0
0 0 0 0 0 0 0 0 0 0 0 0 0 0 0 0 0 0 0 0 0 0 0 0 0 0 0 0 0 0 0 0 0 0 0 0 0 0 0 0 0 0 0 0
0 0 0 0 0 0 0 0 0 0 0 0 0 0 0 0 0 0 0 0 0 0 0 0 0 0 0 0 0 0 0 0 0 0 0 0 0 0 0 0 0 0 0 0
0 0 0 0 0 0 0 0 0 0 0 0 0 0 0 0 0 0 0 0 0 0 0 0 0 0 0 0 0 0 0 0 0 0 0 0 0 0 0 0 0 0 0 0
0 0 0 0 0 0 0 0 0 0 0 0 0 0 0 0 0 0 0 0 0 0 0 0 0 0 0 0 0 0 0 0 0 0 0 0 0 0 0 0 0 0 0 0
0 0 0 0 0 0 0 0 0 0 0 0 0 0 0 0 0 0 0 0 0 0 0 0 0 0 0 0 0 0 0 0 0 0 0 0 0 0 0 0 0 0 0 0
0 0 0 0 0 0 0 0 0 0 0 0 0 0 0 0 0 0 0 0 0 0 0 0 0 0 0 0 0 0 0 0 0 0 0 0 0 0 0 0 0 0 0 0
0 0 0 0 0 0 0 0 0 0 0 0 0 0 0 0 0 0 0 0 0 0 0 0 0 0 0 0 0 0 0 0 0 0 0 0 0 0 0 0 0 0 0 0
0 0 0 0 0 0 0 0 0 0 0 0 0 0 0 0 0 0 0 0 0 0 0 0 0 0 0 0 0 0 0 0 0 0 0 0 0 0 0 0 0 0 0 0
0 0 0 0 0 0 0 0 0 0 0 0 0 0 0 0 0 0 0 0 0 0 0 0 0 0 0 0 0 0 0 0 0 0 0 0 0 0 0 0 0 0 0 0
0 0 0 0 0 0 0 0 0 0 0 0 0 0 0 0 0 0 0 0 0 0 0 0 0 0 0 0 0 0 0 0 0 0 0 0 0 0 0 0 0 0 0 0
0 0 0 0 0 0 0 0 0 0 0 0 0 0 0 0 0 0 0 0 0 0 0 0 0 0 0 0 0 0 0 0 0 0 0 0 0 0 0 0 0 0 0 0
0 0 0 0 0 0 0 0 0 0 0 0 0 0 0 0 0 0 0 0 0 0 0 0 0 0 0 0 0 0 0 0 0 0 0 0 0 0 0 0 0 0 0 0
Wind_Speed
2 3 3 5 6 5 4 5 9 10 5 2 4 5 2 2 3 4 4 5 6 6 4 5 6 7 7 7 8 7 8 7 7 5 5 5 3 3 2 2 3 4 4 5
2 5 8 6 5 4 4 6 7 8 4 1 3 4 1 2 3 4 5 5 6 4 4 6 7 7 9 9 9 8 9 9 8 5 4 4 4 3 2 2 2 3 4 4
8 7 4 4 3 3 4 5 6 6 4 3 3 5 2 1 1 1 2 3 4 6 7 7 8 8 8 9 9 8 9 8 8 7 5 5 4 4 2 2 2 2 3 4
6 7 5 5 5 4 6 5 5 3 1 3 3 4 5 2 2 2 2 3 3 4 5 6 7 8 8 8 7 8 8 7 7 8 8 9 6 5 4 3 2 2 3 3
8 5 5 6 6 6 5 1 2 2 2 2 3 1 8 1 3 4 4 4 4 4 6 7 7 8 8 7 7 8 8 7 7 7 8 8 6 4 3 3 4 3 2 2
7 4 5 6 4 4 3 4 5 5 5 2 2 0 7 4 5 4 3 3 4 4 5 5 5 6 6 7 7 8 8 8 7 7 7 8 8 7 6 5 4 3 2 1
6 5 5 4 2 1 3 5 5 6 5 5 1 2 10 6 4 5 5 4 4 5 6 6 7 7 7 8 8 8 9 8 8 8 7 7 8 8 7 6 5 4 3 2
4 7 5 5 8 6 5 8 7 4 5 6 2 5 9 4 2 2 3 3 4 5 6 7 7 8 8 8 8 9 9 7 8 8 7 6 7 5 4 5 5 5 4 4
7 7 5 3 4 8 6 4 5 7 2 2 5 7 10 1 1 2 3 4 4 5 6 6 7 8 8 8 8 9 9 8 8 8 7 6 6 6 6 5 5 4 4 4
9 5 5 2 2 1 4 8 6 6 4 3 5 5 6 5 5 4 4 4 4 4 5 6 6 7 7 7 7 7 7 8 7 7 6 6 6 6 5 5 6 5 5 4
6 6 5 1 4 5 4 4 5 4 5 5 3 8 7 7 6 6 6 5 5 6 6 6 6 6 6 6 7 7 6 6 6 7 6 6 5 5 5 5 5 5 5 5
4 5 3 5 3 1 5 7 8 6 5 5 4 10 4 4 5 5 5 4 5 5 5 6 6 6 6 7 7 7 7 6 6 6 6 6 5 5 5 5 5 5 5 5
4 6 2 5 5 2 1 3 4 5 5 5 5 9 3 1 2 3 4 5 5 5 5 5 6 7 7 7 7 6 6 6 6 6 6 5 5 5 5 5 4 4 4 4
5 4 6 7 6 3 3 3 4 6 5 5 8 8 5 3 3 3 4 5 5 5 6 5 5 5 6 6 7 7 6 6 6 6 6 5 5 5 5 4 4 4 4 4
5 3 3 5 5 4 5 6 6 7 8 9 8 8 8 6 5 5 5 6 6 6 6 6 6 5 5 5 6 6 6 6 6 6 5 5 4 4 4 4 4 4 3 3
3 3 2 3 5 5 5 7 8 8 6 6 5 7 5 2 4 4 5 7 7 6 6 6 5 5 5 6 6 6 6 7 7 7 6 5 4 4 3 3 3 3 2 2
2 4 3 4 4 1 6 8 9 7 6 7 9 9 3 3 4 5 6 7 7 7 6 6 5 5 4 4 5 6 5 6 6 6 5 5 4 4 3 3 3 2 2 3
6 5 4 3 1 7 9 2 4 5 5 6 5 4 5 6 5 4 4 6 7 6 6 6 5 5 4 5 6 6 7 7 7 6 5 5 5 5 4 4 4 3 3 4
4 6 4 3 4 7 5 2 3 3 4 4 5 5 8 10 8 6 5 6 7 7 7 6 6 7 7 7 7 9 9 8 7 7 6 5 6 6 5 5 5 4 5 6
3 3 4 3 4 7 7 2 0 2 4 3 5 8 10 7 5 3 5 8 10 9 9 8 9 10 9 7 8 11 10 9 7 7 6 6 6 7 7 6 6 5 6 6
2 1 3 4 5 7 4 2 1 5 6 2 4 7 6 3 5 10 10 9 10 10 10 10 11 10 8 8 10 12 11 9 7 7 8 8 7 8 7 7 6 6 7 7
3 2 3 3 4 7 3 2 2 4 1 1 3 6 8 11 14 13 13 11 11 12 11 11 11 11 9 8 12 13 10 7 8 9 9 9 8 7 7 8 7 6 7 7
4 5 4 5 6 4 2 4 4 2 1 1 4 7 13 15 14 14 12 11 11 12 11 9 12 12 10 9 10 13 7 7 8 10 9 8 8 7 6 6 6 5 5 5
3 2 2 4 5 4 5 4 3 1 2 4 7 10 13 15 15 14 12 10 10 11 10 10 11 12 10 8 9 8 6 7 9 9 8 7 7 7 7 6 5 5 4 4
4 2 3 4 5 4 3 3 1 2 6 9 10 10 12 16 15 14 12 11 10 9 9 9 10 11 9 8 8 7 6 8 9 8 7 7 7 6 7 7 6 5 4 3
2 3 3 4 4 2 3 3 1 6 9 11 13 13 11 12 15 15 12 10 10 9 9 10 10 10 8 8 7 6 5 7 8 7 6 5 5 5 5 6 7 12 10 11
Wind_Direction
116 89 222 222 206 223 255 268 281 281 293 290 260 265 265 163 167 181 184 189 204 208 183 167 168 172 171 166 167 172 167 158 151 144 144 139 142 138 121 124 125 129 132 131
42 255 234 215 222 235 249 280 284 294 337 347 298 296 274 177 200 199 199 199 198 184 159 162 165 170 178 175 172 171 171 166 165 163 152 137 130 125 114 106 112 130 133 137
200 232 203 203 254 276 274 235 258 274 320 18 2 320 304 312 257 211 207 199 189 187 176 171 176 176 173 175 175 175 171 164 160 151 128 111 94 85 93 112 118 126 133 134
232 247 229 246 255 222 276 252 241 267 335 313 29 297 296 300 307 258 231 210 200 182 173 171 172 172 176 175 168 162 158 154 155 151 149 148 148 154 170 160 147 122 122 130
230 217 196 221 232 190 229 348 56 59 108 353 4 283 290 321 279 256 238 219 205 187 175 175 176 176 169 162 159 154 150 148 155 157 157 152 144 143 131 128 132 124 111 125
242 231 210 216 221 188 170 64 50 53 62 333 301 287 283 250 233 246 230 215 194 183 172 167 161 151 147 147 149 151 152 151 152 153 156 154 152 147 143 147 150 149 138 135
281 264 234 203 266 312 125 91 18 352 360 265 267 247 254 252 230 214 210 208 193 178 167 162 157 154 155 156 156 153 154 154 155 154 157 160 159 158 163 163 166 164 166 180
229 282 247 195 190 190 176 146 160 208 238 280 307 252 257 255 234 198 185 183 171 169 168 166 166 163 165 163 159 156 159 158 154 156 161 159 157 160 167 170 170 178 185 189
192 253 282 226 192 154 149 180 161 134 157 286 286 284 299 230 207 190 177 168 176 176 174 168 165 167 165 166 168 166 162 158 160 162 158 159 162 166 174 175 176 182 190 187
168 235 281 282 102 53 151 144 109 124 153 258 290 281 263 257 231 203 190 190 184 171 169 165 167 167 163 164 163 160 161 163 160 160 166 170 172 178 177 172 185 193 197 190
157 191 280 8 187 190 124 119 118 123 154 165 249 270 231 222 210 197 198 190 181 179 178 173 168 163 154 148 151 154 156 152 157 164 168 168 172 176 173 181 197 198 195 193
152 139 241 258 259 214 177 173 151 158 208 180 187 264 270 214 200 183 185 180 173 174 172 165 160 154 154 156 156 160 161 161 167 167 168 175 174 172 177 191 201 197 199 200
132 118 69 342 340 355 143 166 157 131 123 157 179 261 302 121 162 170 168 167 163 157 155 152 155 162 166 167 165 166 167 170 168 164 168 173 176 178 186 192 193 193 199 205
114 119 163 195 220 224 243 201 159 136 153 195 217 246 282 252 204 184 165 156 152 154 153 153 159 166 168 169 169 169 171 168 165 161 167 177 183 185 189 187 187 193 196 200
100 142 214 237 242 222 227 228 195 195 192 192 224 228 250 233 205 184 159 147 140 146 150 156 163 165 161 161 164 166 165 161 162 161 168 181 176 170 169 175 184 186 188 200
86 152 192 269 253 239 247 243 217 220 210 217 230 250 246 193 137 138 149 153 149 149 151 150 148 151 157 165 165 161 161 159 156 159 166 159 153 157 160 164 163 160 160 156
162 154 162 249 272 290 249 225 206 205 206 191 211 227 172 150 152 156 154 152 148 141 137 137 139 142 144 146 147 149 144 136 138 141 136 133 136 133 125 124 117 116 111 108
159 154 165 212 212 230 240 238 206 201 220 210 212 197 165 149 119 92 110 133 129 124 123 122 120 114 107 110 114 114 110 115 117 116 113 114 115 108 103 100 94 88 89 93
163 154 154 165 218 267 280 247 186 187 243 212 188 159 133 129 100 65 56 88 101 103 101 100 98 96 97 101 106 104 99 100 103 103 100 97 101 99 90 83 83 86 90 86
76 120 146 168 199 237 248 255 216 123 256 228 181 163 155 145 135 138 99 93 91 88 88 91 90 90 89 91 101 99 95 93 91 92 90 85 89 92 90 86 84 83 87 86
1 39 181 200 224 256 268 308 89 194 240 213 170 159 155 144 129 123 111 97 93 91 90 90 87 83 82 89 94 91 88 84 84 85 83 80 82 87 89 84 78 83 85 82
222 223 216 186 214 252 327 14 212 246 312 144 132 127 119 115 115 115 110 106 102 95 88 88 89 83 74 81 93 90 82 78 81 82 79 75 72 78 84 84 78 78 87 86
219 207 207 206 227 261 291 264 271 254 238 172 137 129 126 123 120 115 111 109 104 100 95 92 94 88 73 67 85 93 85 84 83 80 76 74 72 69 74 83 85 79 78 88
264 196 215 265 273 284 291 288 288 233 177 143 135 130 126 124 122 118 113 108 105 103 101 99 96 90 79 72 76 86 91 90 88 83 76 74 76 71 64 62 67 78 80 90
255 215 228 258 279 299 306 315 333 109 122 121 120 120 124 125 124 122 117 112 107 101 96 94 95 94 88 80 74 73 81 90 87 81 77 74 73 78 72 64 53 59 56 76
252 214 213 244 266 256 292 324 71 118 121 122 120 113 111 119 121 118 115 112 111 106 100 96 93 93 88 82 74 65 73 90 94 87 79 78 81 82 88 90 73 52 61 65